QPF
0.06 0.04 0.06 0.05 0.04 0.03 0.03 0.03 0.06 0.07 0.09 0.08 0.04 0.03 0.04 0.04 0.04 0.04 0.04 0.03 0.05 0.06 0.05 0.04 0.04 0.05 0.08 0.10 0.09 0.09 0.09 0.10 0.10 0.07 0.05 0.04 0.04 0.05 0.06 0.06 0.05 0.05 0.07
0.06 0.04 0.04 0.03 0.04 0.04 0.03 0.04 0.07 0.09 0.10 0.07 0.04 0.04 0.05 0.05 0.05 0.04 0.04 0.05 0.07 0.06 0.07 0.09 0.08 0.05 0.06 0.08 0.09 0.09 0.09 0.08 0.08 0.07 0.05 0.04 0.04 0.06 0.08 0.07 0.05 0.06 0.09
0.04 0.02 0.02 0.02 0.02 0.02 0.02 0.03 0.06 0.07 0.06 0.04 0.03 0.04 0.04 0.04 0.04 0.03 0.04 0.05 0.05 0.05 0.07 0.12 0.16 0.10 0.06 0.06 0.07 0.09 0.11 0.10 0.08 0.06 0.05 0.03 0.04 0.06 0.06 0.06 0.05 0.04 0.03
0.01 0.01 0.01 0.01 0.01 0.01 0.01 0.03 0.07 0.06 0.07 0.06 0.05 0.04 0.03 0.03 0.03 0.03 0.04 0.06 0.05 0.04 0.04 0.07 0.10 0.13 0.08 0.05 0.06 0.08 0.10 0.11 0.10 0.05 0.02 0.01 0.02 0.06 0.06 0.04 0.03 0.03 0.02
0.00 0.01 0.01 0.01 0.01 0.01 0.01 0.02 0.04 0.06 0.06 0.05 0.05 0.04 0.03 0.04 0.04 0.03 0.05 0.06 0.06 0.05 0.05 0.04 0.05 0.07 0.06 0.05 0.06 0.07 0.08 0.10 0.08 0.04 0.01 0.02 0.03 0.07 0.05 0.04 0.04 0.03 0.03
0.00 0.00 0.01 0.01 0.01 0.01 0.01 0.01 0.03 0.04 0.03 0.03 0.03 0.04 0.04 0.04 0.05 0.06 0.07 0.06 0.05 0.04 0.05 0.04 0.04 0.04 0.02 0.03 0.05 0.05 0.08 0.09 0.06 0.03 0.02 0.03 0.03 0.05 0.04 0.04 0.03 0.03 0.04
0.00 0.00 0.01 0.02 0.01 0.01 0.01 0.01 0.01 0.02 0.03 0.03 0.02 0.04 0.04 0.04 0.05 0.07 0.09 0.07 0.05 0.05 0.03 0.04 0.06 0.05 0.03 0.03 0.03 0.04 0.06 0.08 0.03 0.02 0.02 0.02 0.03 0.05 0.05 0.04 0.04 0.05 0.06
0.00 0.00 0.01 0.01 0.01 0.01 0.01 0.02 0.02 0.02 0.03 0.02 0.01 0.03 0.03 0.06 0.06 0.06 0.08 0.05 0.04 0.03 0.03 0.04 0.05 0.07 0.06 0.06 0.06 0.06 0.06 0.06 0.03 0.03 0.03 0.02 0.04 0.05 0.06 0.05 0.05 0.05 0.06
0.00 0.00 0.00 0.01 0.01 0.01 0.01 0.02 0.03 0.03 0.04 0.02 0.02 0.03 0.04 0.07 0.07 0.06 0.06 0.05 0.04 0.04 0.03 0.03 0.03 0.03 0.05 0.06 0.06 0.07 0.08 0.07 0.03 0.03 0.03 0.04 0.05 0.05 0.05 0.04 0.03 0.04 0.03
0.01 0.01 0.01 0.00 0.00 0.00 0.00 0.01 0.02 0.03 0.04 0.04 0.03 0.04 0.06 0.07 0.07 0.05 0.05 0.05 0.07 0.07 0.04 0.03 0.03 0.02 0.03 0.04 0.05 0.06 0.07 0.05 0.03 0.03 0.03 0.05 0.06 0.05 0.04 0.04 0.04 0.03 0.03
0.02 0.02 0.01 0.01 0.01 0.00 0.01 0.01 0.02 0.02 0.02 0.03 0.03 0.05 0.05 0.04 0.05 0.05 0.07 0.07 0.07 0.07 0.06 0.05 0.04 0.04 0.04 0.04 0.05 0.06 0.06 0.04 0.03 0.03 0.03 0.06 0.06 0.05 0.04 0.03 0.03 0.03 0.03
0.02 0.02 0.02 0.02 0.01 0.01 0.01 0.01 0.01 0.01 0.02 0.02 0.01 0.01 0.03 0.04 0.05 0.09 0.08 0.07 0.07 0.07 0.07 0.06 0.06 0.05 0.04 0.03 0.04 0.05 0.05 0.04 0.04 0.04 0.05 0.06 0.05 0.05 0.04 0.03 0.03 0.03 0.03
0.00 0.01 0.02 0.01 0.01 0.02 0.01 0.02 0.02 0.02 0.02 0.02 0.01 0.01 0.02 0.02 0.02 0.04 0.05 0.06 0.04 0.03 0.02 0.03 0.03 0.02 0.03 0.04 0.04 0.04 0.05 0.03 0.02 0.03 0.06 0.11 0.08 0.06 0.05 0.05 0.04 0.04 0.05
0.01 0.01 0.01 0.00 0.00 0.01 0.01 0.01 0.02 0.02 0.02 0.02 0.01 0.01 0.01 0.01 0.01 0.01 0.03 0.03 0.02 0.01 0.01 0.01 0.01 0.01 0.04 0.06 0.06 0.05 0.05 0.03 0.01 0.01 0.03 0.10 0.11 0.10 0.07 0.06 0.05 0.04 0.04
0.00 0.01 0.01 0.00 0.00 0.00 0.00 0.00 0.01 0.02 0.03 0.02 0.02 0.02 0.01 0.01 0.01 0.01 0.02 0.01 0.01 0.01 0.01 0.01 0.01 0.01 0.04 0.07 0.06 0.04 0.05 0.02 0.01 0.01 0.02 0.05 0.07 0.09 0.08 0.06 0.06 0.05 0.04
0.00 0.01 0.01 0.01 0.01 0.01 0.01 0.01 0.02 0.02 0.02 0.01 0.01 0.02 0.02 0.01 0.00 0.00 0.01 0.01 0.02 0.03 0.02 0.01 0.01 0.01 0.01 0.04 0.05 0.04 0.04 0.02 0.02 0.02 0.02 0.02 0.04 0.07 0.09 0.09 0.08 0.06 0.06
0.01 0.01 0.01 0.01 0.01 0.01 0.01 0.01 0.01 0.01 0.00 0.00 0.01 0.01 0.01 0.01 0.01 0.01 0.01 0.01 0.01 0.02 0.01 0.01 0.01 0.01 0.01 0.02 0.04 0.05 0.04 0.04 0.02 0.02 0.01 0.01 0.02 0.04 0.08 0.11 0.08 0.08 0.09
0.01 0.01 0.01 0.01 0.01 0.01 0.01 0.00 0.00 0.01 0.00 0.00 0.00 0.01 0.01 0.01 0.01 0.02 0.01 0.01 0.01 0.02 0.01 0.00 0.01 0.00 0.01 0.02 0.02 0.04 0.04 0.04 0.02 0.01 0.01 0.01 0.01 0.02 0.08 0.12 0.10 0.08 0.09
0.01 0.02 0.01 0.01 0.01 0.00 0.00 0.01 0.01 0.01 0.01 0.01 0.01 0.01 0.01 0.00 0.01 0.01 0.01 0.01 0.01 0.01 0.01 0.01 0.01 0.01 0.01 0.02 0.02 0.02 0.03 0.03 0.02 0.01 0.01 0.02 0.02 0.03 0.07 0.12 0.11 0.08 0.09
0.02 0.02 0.01 0.01 0.01 0.01 0.01 0.01 0.01 0.01 0.01 0.01 0.01 0.00 0.01 0.00 0.00 0.00 0.01 0.01 0.01 0.00 0.01 0.01 0.01 0.01 0.02 0.04 0.03 0.03 0.03 0.03 0.02 0.02 0.03 0.05 0.05 0.06 0.10 0.12 0.11 0.10 0.10
0.01 0.02 0.02 0.00 0.01 0.00 0.01 0.01 0.02 0.01 0.01 0.01 0.01 0.00 0.00 0.00 0.00 0.01 0.01 0.01 0.01 0.00 0.01 0.01 0.01 0.01 0.01 0.05 0.05 0.05 0.05 0.05 0.04 0.04 0.05 0.06 0.06 0.07 0.10 0.12 0.10 0.08 0.07
0.01 0.02 0.02 0.01 0.01 0.01 0.01 0.01 0.01 0.01 0.01 0.01 0.01 0.00 0.00 0.01 0.01 0.01 0.00 0.01 0.00 0.00 0.00 0.01 0.01 0.00 0.01 0.02 0.04 0.03 0.04 0.04 0.04 0.04 0.06 0.08 0.07 0.06 0.08 0.10 0.09 0.07 0.06
0.02 0.02 0.02 0.01 0.01 0.01 0.02 0.01 0.01 0.01 0.00 0.01 0.01 0.01 0.01 0.01 0.01 0.01 0.01 0.01 0.00 0.00 0.00 0.01 0.01 0.01 0.01 0.01 0.01 0.02 0.02 0.03 0.04 0.06 0.08 0.08 0.06 0.06 0.08 0.09 0.08 0.06 0.04
0.02 0.03 0.02 0.02 0.01 0.01 0.01 0.01 0.01 0.01 0.01 0.01 0.01 0.01 0.00 0.01 0.01 0.01 0.01 0.00 0.00 0.00 0.00 0.00 0.01 0.01 0.01 0.01 0.01 0.02 0.03 0.03 0.03 0.04 0.06 0.06 0.06 0.06 0.07 0.08 0.07 0.04 0.03
0.02 0.02 0.03 0.02 0.02 0.01 0.01 0.01 0.01 0.01 0.01 0.01 0.00 0.01 0.01 0.00 0.00 0.00 0.00 0.01 0.01 0.01 0.00 0.00 0.00 0.01 0.01 0.01 0.02 0.02 0.03 0.03 0.03 0.03 0.04 0.05 0.06 0.07 0.06 0.06 0.05 0.03 0.02
0.02 0.03 0.02 0.02 0.02 0.01 0.01 0.01 0.01 0.00 0.01 0.01 0.00 0.01 0.01 0.01 0.00 0.00 0.00 0.01 0.01 0.01 0.01 0.01 0.01 0.01 0.02 0.02 0.02 0.02 0.03 0.03 0.03 0.02 0.03 0.04 0.05 0.06 0.06 0.04 0.04 0.03 0.02
MSLP
1016.94 1016.17 1015.47 1014.93 1014.56 1014.37 1014.30 1014.30 1014.30 1014.28 1014.22 1014.12 1014.02 1013.95 1013.95 1014.01 1014.12 1014.26 1014.38 1014.46 1014.48 1014.46 1014.41 1014.35 1014.31 1014.31 1014.35 1014.40 1014.45 1014.48 1014.47 1014.43 1014.36 1014.29 1014.24 1014.23 1014.26 1014.31 1014.38 1014.45 1014.49 1014.51 1014.50
1016.96 1016.24 1015.59 1015.10 1014.77 1014.59 1014.51 1014.50 1014.48 1014.44 1014.37 1014.28 1014.20 1014.17 1014.21 1014.31 1014.46 1014.61 1014.73 1014.79 1014.79 1014.74 1014.67 1014.59 1014.55 1014.55 1014.58 1014.64 1014.70 1014.74 1014.74 1014.72 1014.68 1014.64 1014.61 1014.62 1014.66 1014.71 1014.76 1014.80 1014.81 1014.79 1014.75
1016.91 1016.25 1015.67 1015.24 1014.96 1014.81 1014.75 1014.72 1014.69 1014.64 1014.55 1014.47 1014.42 1014.42 1014.49 1014.61 1014.76 1014.90 1015.01 1015.05 1015.02 1014.95 1014.85 1014.77 1014.73 1014.73 1014.78 1014.85 1014.93 1014.99 1015.02 1015.03 1015.03 1015.03 1015.05 1015.08 1015.13 1015.18 1015.22 1015.23 1015.20 1015.15 1015.08
1016.77 1016.20 1015.71 1015.36 1015.14 1015.04 1015.00 1014.97 1014.94 1014.87 1014.78 1014.70 1014.66 1014.67 1014.75 1014.88 1015.02 1015.15 1015.23 1015.24 1015.19 1015.10 1015.00 1014.93 1014.90 1014.92 1014.98 1015.08 1015.18 1015.27 1015.34 1015.39 1015.44 1015.49 1015.55 1015.61 1015.68 1015.73 1015.75 1015.72 1015.66 1015.58 1015.49
1016.60 1016.12 1015.73 1015.47 1015.33 1015.28 1015.26 1015.25 1015.21 1015.13 1015.03 1014.94 1014.90 1014.92 1015.00 1015.12 1015.25 1015.36 1015.41 1015.41 1015.35 1015.26 1015.17 1015.12 1015.12 1015.17 1015.26 1015.38 1015.50 1015.61 1015.72 1015.81 1015.90 1015.99 1016.09 1016.19 1016.27 1016.32 1016.33 1016.28 1016.19 1016.08 1015.97
1016.45 1016.05 1015.76 1015.60 1015.53 1015.53 1015.54 1015.53 1015.48 1015.39 1015.28 1015.19 1015.14 1015.16 1015.24 1015.35 1015.46 1015.56 1015.60 1015.59 1015.54 1015.47 1015.42 1015.40 1015.44 1015.52 1015.65 1015.78 1015.92 1016.05 1016.17 1016.29 1016.40 1016.53 1016.66 1016.78 1016.88 1016.93 1016.92 1016.86 1016.75 1016.63 1016.51
1016.37 1016.05 1015.85 1015.77 1015.77 1015.80 1015.83 1015.82 1015.75 1015.65 1015.53 1015.43 1015.39 1015.41 1015.48 1015.59 1015.70 1015.79 1015.83 1015.83 1015.80 1015.77 1015.76 1015.80 1015.88 1016.01 1016.16 1016.31 1016.46 1016.59 1016.70 1016.82 1016.95 1017.08 1017.23 1017.37 1017.47 1017.52 1017.52 1017.45 1017.33 1017.21 1017.09
1016.42 1016.16 1016.03 1016.01 1016.05 1016.11 1016.14 1016.11 1016.02 1015.90 1015.78 1015.68 1015.65 1015.68 1015.77 1015.88 1016.00 1016.08 1016.13 1016.15 1016.15 1016.16 1016.21 1016.30 1016.43 1016.60 1016.78 1016.94 1017.08 1017.20 1017.30 1017.40 1017.51 1017.64 1017.78 1017.92 1018.02 1018.08 1018.08 1018.02 1017.91 1017.80 1017.70
1016.62 1016.42 1016.33 1016.35 1016.40 1016.46 1016.46 1016.41 1016.31 1016.17 1016.05 1015.97 1015.96 1016.02 1016.12 1016.25 1016.37 1016.46 1016.52 1016.55 1016.58 1016.63 1016.72 1016.87 1017.05 1017.26 1017.46 1017.63 1017.77 1017.86 1017.93 1018.00 1018.08 1018.19 1018.31 1018.44 1018.54 1018.61 1018.61 1018.57 1018.48 1018.39 1018.31
1016.98 1016.80 1016.75 1016.77 1016.82 1016.85 1016.83 1016.74 1016.62 1016.48 1016.37 1016.32 1016.34 1016.44 1016.57 1016.71 1016.84 1016.93 1016.98 1017.02 1017.06 1017.14 1017.27 1017.46 1017.69 1017.93 1018.16 1018.34 1018.47 1018.55 1018.60 1018.63 1018.67 1018.74 1018.84 1018.95 1019.05 1019.11 1019.13 1019.11 1019.05 1018.98 1018.93
1017.45 1017.30 1017.25 1017.27 1017.29 1017.29 1017.23 1017.12 1016.97 1016.84 1016.75 1016.74 1016.81 1016.94 1017.10 1017.26 1017.39 1017.47 1017.51 1017.54 1017.58 1017.66 1017.81 1018.03 1018.29 1018.58 1018.83 1019.04 1019.18 1019.25 1019.28 1019.28 1019.29 1019.32 1019.38 1019.46 1019.55 1019.62 1019.65 1019.65 1019.61 1019.58 1019.55
1017.98 1017.85 1017.80 1017.81 1017.80 1017.76 1017.66 1017.52 1017.37 1017.25 1017.20 1017.23 1017.34 1017.51 1017.70 1017.87 1018.00 1018.06 1018.08 1018.08 1018.11 1018.18 1018.34 1018.58 1018.87 1019.18 1019.47 1019.71 1019.87 1019.95 1019.97 1019.95 1019.93 1019.93 1019.96 1020.01 1020.08 1020.14 1020.18 1020.19 1020.19 1020.17 1020.17
1018.51 1018.40 1018.36 1018.34 1018.30 1018.22 1018.09 1017.94 1017.79 1017.69 1017.68 1017.75 1017.90 1018.11 1018.32 1018.50 1018.61 1018.66 1018.66 1018.63 1018.64 1018.70 1018.86 1019.10 1019.41 1019.76 1020.08 1020.35 1020.54 1020.64 1020.67 1020.65 1020.61 1020.58 1020.57 1020.59 1020.63 1020.68 1020.72 1020.75 1020.76 1020.77 1020.78
1019.01 1018.91 1018.87 1018.83 1018.77 1018.66 1018.51 1018.35 1018.22 1018.14 1018.16 1018.27 1018.46 1018.68 1018.91 1019.09 1019.20 1019.24 1019.22 1019.18 1019.17 1019.23 1019.38 1019.63 1019.96 1020.32 1020.68 1020.98 1021.21 1021.34 1021.38 1021.37 1021.31 1021.26 1021.22 1021.21 1021.22 1021.24 1021.28 1021.31 1021.33 1021.35 1021.37
1019.44 1019.36 1019.32 1019.26 1019.17 1019.05 1018.89 1018.74 1018.62 1018.57 1018.61 1018.74 1018.94 1019.18 1019.41 1019.60 1019.71 1019.75 1019.74 1019.71 1019.71 1019.78 1019.93 1020.19 1020.53 1020.90 1021.28 1021.61 1021.86 1022.01 1022.08 1022.07 1022.01 1021.94 1021.87 1021.82 1021.80 1021.80 1021.82 1021.85 1021.88 1021.91 1021.94
1019.82 1019.74 1019.68 1019.61 1019.51 1019.37 1019.22 1019.08 1018.98 1018.95 1019.00 1019.14 1019.34 1019.58 1019.80 1019.99 1020.12 1020.18 1020.20 1020.21 1020.25 1020.34 1020.52 1020.79 1021.13 1021.51 1021.88 1022.22 1022.48 1022.65 1022.73 1022.73 1022.67 1022.58 1022.49 1022.41 1022.36 1022.34 1022.34 1022.36 1022.39 1022.43 1022.46
1020.17 1020.08 1019.99 1019.89 1019.78 1019.65 1019.51 1019.39 1019.32 1019.30 1019.35 1019.48 1019.66 1019.87 1020.08 1020.27 1020.42 1020.53 1020.61 1020.68 1020.78 1020.92 1021.13 1021.41 1021.74 1022.11 1022.46 1022.79 1023.04 1023.21 1023.30 1023.30 1023.25 1023.15 1023.04 1022.94 1022.87 1022.83 1022.82 1022.83 1022.87 1022.91 1022.94
1020.51 1020.38 1020.26 1020.14 1020.01 1019.90 1019.78 1019.70 1019.64 1019.63 1019.68 1019.78 1019.92 1020.09 1020.27 1020.46 1020.63 1020.79 1020.94 1021.10 1021.27 1021.48 1021.72 1022.01 1022.33 1022.66 1022.98 1023.27 1023.50 1023.67 1023.75 1023.76 1023.71 1023.62 1023.52 1023.41 1023.32 1023.27 1023.25 1023.26 1023.30 1023.35 1023.39
1020.85 1020.67 1020.51 1020.36 1020.23 1020.14 1020.06 1020.01 1019.99 1019.99 1020.02 1020.08 1020.17 1020.29 1020.43 1020.60 1020.79 1021.00 1021.22 1021.46 1021.71 1021.97 1022.25 1022.54 1022.83 1023.12 1023.39 1023.63 1023.83 1023.98 1024.07 1024.09 1024.06 1023.99 1023.90 1023.81 1023.73 1023.67 1023.65 1023.67 1023.71 1023.77 1023.82
1021.20 1020.97 1020.75 1020.58 1020.46 1020.39 1020.36 1020.37 1020.38 1020.41 1020.43 1020.45 1020.48 1020.53 1020.62 1020.75 1020.94 1021.17 1021.45 1021.75 1022.06 1022.37 1022.67 1022.95 1023.21 1023.44 1023.66 1023.85 1024.02 1024.15 1024.24 1024.29 1024.30 1024.26 1024.21 1024.14 1024.08 1024.04 1024.03 1024.06 1024.11 1024.18 1024.23
1021.55 1021.25 1020.99 1020.80 1020.68 1020.65 1020.69 1020.75 1020.83 1020.88 1020.90 1020.89 1020.86 1020.85 1020.87 1020.96 1021.12 1021.35 1021.65 1021.98 1022.33 1022.66 1022.95 1023.21 1023.42 1023.61 1023.77 1023.92 1024.06 1024.19 1024.30 1024.39 1024.44 1024.46 1024.45 1024.43 1024.40 1024.38 1024.39 1024.43 1024.49 1024.57 1024.64
1021.85 1021.51 1021.21 1021.00 1020.91 1020.92 1021.02 1021.16 1021.30 1021.40 1021.43 1021.40 1021.34 1021.26 1021.22 1021.24 1021.36 1021.56 1021.84 1022.17 1022.51 1022.83 1023.10 1023.33 1023.50 1023.63 1023.75 1023.87 1024.00 1024.13 1024.27 1024.41 1024.52 1024.60 1024.65 1024.67 1024.69 1024.70 1024.73 1024.78 1024.85 1024.94 1025.01
1022.10 1021.73 1021.40 1021.18 1021.10 1021.16 1021.32 1021.54 1021.75 1021.90 1021.97 1021.95 1021.86 1021.74 1021.64 1021.60 1021.66 1021.81 1022.05 1022.34 1022.64 1022.92 1023.15 1023.33 1023.46 1023.55 1023.64 1023.74 1023.87 1024.03 1024.21 1024.39 1024.56 1024.70 1024.81 1024.88 1024.93 1024.97 1025.02 1025.09 1025.17 1025.25 1025.33
1022.28 1021.89 1021.55 1021.33 1021.26 1021.35 1021.57 1021.85 1022.13 1022.35 1022.47 1022.47 1022.38 1022.24 1022.10 1022.01 1022.00 1022.09 1022.26 1022.49 1022.73 1022.96 1023.15 1023.28 1023.37 1023.43 1023.50 1023.60 1023.74 1023.92 1024.14 1024.36 1024.58 1024.77 1024.92 1025.03 1025.11 1025.18 1025.24 1025.32 1025.41 1025.49 1025.58
1022.40 1022.02 1021.68 1021.45 1021.39 1021.49 1021.74 1022.06 1022.40 1022.68 1022.85 1022.90 1022.83 1022.70 1022.55 1022.42 1022.36 1022.39 1022.50 1022.66 1022.84 1023.00 1023.14 1023.23 1023.29 1023.34 1023.40 1023.50 1023.66 1023.86 1024.09 1024.35 1024.59 1024.81 1024.98 1025.12 1025.22 1025.30 1025.38 1025.46 1025.56 1025.65 1025.73
1022.48 1022.13 1021.80 1021.57 1021.49 1021.59 1021.84 1022.18 1022.55 1022.87 1023.09 1023.18 1023.16 1023.06 1022.92 1022.79 1022.70 1022.69 1022.74 1022.84 1022.96 1023.07 1023.16 1023.22 1023.26 1023.31 1023.37 1023.48 1023.64 1023.85 1024.10 1024.36 1024.60 1024.82 1025.00 1025.14 1025.25 1025.34 1025.43 1025.52 1025.62 1025.72 1025.80
Thickness
5756 5760 5762 5763 5763 5764 5765 5765 5766 5767 5767 5767 5768 5769 5769 5769 5770 5770 5770 5771 5771 5771 5771 5772 5772 5772 5772 5772 5772 5772 5772 5772 5772 5772 5772 5772 5772 5772 5772 5772 5771 5771 5770
5758 5759 5760 5761 5761 5762 5762 5763 5764 5764 5764 5765 5765 5766 5766 5767 5767 5768 5768 5768 5768 5768 5768 5769 5769 5769 5770 5769 5770 5770 5770 5770 5769 5769 5769 5769 5770 5770 5769 5769 5769 5769 5768
5757 5757 5758 5759 5759 5760 5760 5761 5761 5762 5762 5762 5763 5763 5763 5764 5764 5765 5765 5765 5765 5765 5765 5765 5765 5766 5766 5766 5766 5766 5766 5766 5766 5766 5766 5766 5766 5766 5766 5766 5766 5766 5765
5756 5756 5757 5757 5757 5757 5758 5758 5758 5759 5759 5759 5759 5760 5760 5760 5761 5761 5761 5762 5762 5762 5762 5762 5762 5763 5763 5763 5763 5763 5762 5762 5762 5762 5762 5763 5763 5763 5763 5763 5763 5763 5762
5755 5754 5755 5755 5755 5755 5755 5755 5756 5756 5756 5757 5757 5757 5757 5757 5757 5758 5758 5758 5758 5758 5759 5759 5760 5760 5760 5760 5759 5759 5759 5759 5759 5758 5758 5758 5759 5759 5760 5760 5759 5759 5759
5753 5752 5753 5753 5753 5752 5752 5752 5753 5753 5753 5754 5754 5754 5754 5754 5754 5754 5754 5754 5754 5754 5754 5755 5755 5756 5756 5756 5756 5756 5755 5755 5754 5754 5754 5755 5755 5756 5756 5756 5756 5756 5756
5751 5751 5750 5750 5750 5750 5750 5750 5750 5750 5750 5751 5751 5751 5751 5751 5750 5750 5750 5749 5750 5750 5750 5750 5751 5751 5752 5751 5752 5752 5751 5750 5750 5750 5750 5750 5751 5751 5752 5752 5751 5751 5751
5750 5749 5748 5748 5748 5748 5748 5747 5747 5747 5747 5747 5747 5747 5747 5747 5746 5746 5746 5746 5745 5746 5746 5746 5746 5747 5747 5747 5747 5747 5747 5746 5745 5745 5745 5746 5747 5747 5747 5747 5747 5747 5747
5749 5747 5746 5746 5746 5745 5745 5745 5744 5744 5744 5744 5744 5744 5743 5743 5743 5742 5742 5742 5741 5741 5742 5742 5742 5742 5743 5743 5743 5742 5742 5741 5741 5740 5741 5741 5742 5742 5742 5742 5742 5743 5742
5747 5745 5744 5743 5743 5742 5742 5742 5741 5741 5740 5740 5740 5740 5740 5739 5739 5738 5738 5738 5737 5737 5737 5737 5738 5738 5738 5737 5737 5737 5736 5736 5736 5736 5736 5737 5738 5738 5738 5738 5737 5737 5738
5743 5742 5742 5741 5740 5740 5739 5739 5738 5737 5737 5737 5737 5737 5736 5735 5734 5734 5734 5734 5734 5733 5733 5733 5733 5733 5732 5732 5732 5731 5731 5731 5731 5731 5732 5732 5733 5733 5733 5733 5733 5733 5733
5738 5739 5739 5739 5738 5737 5737 5736 5735 5734 5733 5733 5733 5733 5732 5731 5731 5730 5730 5729 5730 5729 5729 5729 5729 5728 5728 5727 5726 5726 5726 5726 5726 5726 5727 5727 5728 5728 5728 5728 5728 5728 5728
5738 5738 5738 5737 5736 5735 5734 5733 5732 5731 5730 5730 5730 5729 5728 5727 5726 5726 5725 5725 5725 5725 5724 5724 5724 5724 5723 5722 5721 5721 5721 5720 5720 5721 5721 5722 5723 5723 5723 5723 5723 5723 5723
5736 5736 5736 5736 5734 5733 5732 5730 5729 5728 5727 5727 5726 5726 5725 5723 5722 5721 5721 5720 5720 5720 5720 5719 5719 5719 5719 5718 5717 5716 5716 5715 5715 5715 5716 5716 5717 5718 5718 5718 5718 5719 5719
5734 5734 5734 5733 5732 5730 5729 5727 5726 5725 5724 5723 5723 5722 5722 5720 5719 5718 5717 5716 5716 5716 5715 5715 5714 5714 5714 5713 5712 5712 5710 5710 5710 5710 5710 5711 5712 5713 5713 5713 5714 5714 5714
5732 5731 5731 5731 5730 5728 5726 5725 5723 5722 5721 5721 5720 5719 5718 5717 5716 5714 5713 5713 5712 5712 5712 5711 5710 5709 5708 5708 5707 5706 5705 5704 5705 5705 5705 5706 5707 5707 5708 5708 5709 5709 5709
5730 5730 5729 5729 5727 5726 5724 5722 5721 5720 5719 5718 5717 5716 5715 5714 5713 5711 5710 5709 5708 5708 5708 5707 5706 5705 5703 5702 5701 5701 5700 5699 5699 5699 5700 5700 5701 5701 5702 5703 5704 5704 5704
5729 5728 5728 5728 5725 5723 5721 5720 5718 5717 5716 5715 5714 5713 5712 5711 5710 5708 5707 5705 5705 5705 5704 5702 5701 5699 5697 5696 5696 5696 5695 5695 5694 5694 5694 5695 5696 5696 5697 5697 5698 5698 5698
5728 5726 5724 5724 5722 5720 5718 5717 5715 5713 5712 5711 5711 5710 5709 5708 5707 5705 5704 5703 5702 5701 5699 5699 5696 5695 5693 5691 5691 5690 5690 5690 5689 5689 5689 5690 5691 5691 5691 5691 5692 5692 5692
5726 5724 5722 5720 5719 5717 5715 5713 5711 5709 5708 5708 5707 5707 5706 5705 5704 5702 5701 5699 5698 5697 5695 5694 5692 5691 5689 5688 5688 5685 5684 5684 5684 5684 5685 5686 5686 5687 5687 5686 5686 5686 5686
5723 5721 5719 5717 5716 5714 5712 5709 5706 5703 5704 5704 5704 5704 5703 5702 5701 5699 5697 5696 5695 5693 5691 5690 5689 5687 5685 5684 5682 5678 5677 5678 5679 5680 5681 5682 5682 5681 5681 5681 5681 5680 5680
5720 5719 5717 5716 5714 5713 5710 5708 5706 5703 5701 5701 5701 5701 5700 5699 5698 5697 5695 5693 5692 5690 5688 5687 5686 5683 5681 5681 5677 5672 5667 5668 5672 5675 5676 5677 5677 5677 5676 5675 5675 5675 5675
5718 5717 5717 5715 5713 5711 5709 5707 5704 5701 5699 5697 5697 5697 5697 5697 5696 5694 5693 5691 5689 5688 5686 5685 5684 5681 5678 5677 5676 5671 5665 5662 5664 5668 5670 5670 5671 5671 5671 5671 5670 5669 5669
5719 5718 5716 5713 5711 5710 5708 5705 5701 5696 5693 5694 5694 5694 5695 5694 5693 5692 5691 5689 5687 5686 5684 5683 5682 5680 5678 5674 5673 5672 5671 5668 5663 5660 5662 5664 5665 5666 5666 5666 5665 5664 5664
5720 5717 5714 5712 5710 5708 5707 5704 5700 5696 5694 5693 5693 5692 5692 5692 5691 5690 5689 5687 5686 5684 5683 5681 5680 5679 5676 5674 5671 5670 5668 5666 5665 5660 5656 5657 5658 5659 5660 5660 5660 5660 5659
5718 5715 5713 5710 5708 5707 5705 5702 5700 5696 5693 5691 5690 5689 5689 5689 5688 5688 5687 5686 5684 5683 5681 5680 5678 5677 5675 5673 5671 5669 5667 5664 5662 5659 5655 5653 5652 5653 5655 5656 5655 5655 5654